Weather observations for the past three days for
Gustavus, Gustavus Airport
Imperial (Metric)
Date Time (akdt) Wind (mph) Vis. (mi.) Weather Sky Cond. Temperature (ºF) Relative Humidity Wind Chill (°F) Heat Index (°F) Pressure Precipitation (in)
Air Dwpt 6 hour altimeter (in) sea level (mb) 1 hr 3 hr 6 hr
Max. Min.
17 04:56 NW 7 10.00 Light Rain SCT004 BKN010 OVC060 52 51.1 97% 29.86 1011.2 0.04
17 03:56 NW 5 10.00 Light Rain BKN041 OVC047 52 52 54 52 100% 29.88 1011.9 0.05 0.09
17 02:56 N 3 10.00 Light Rain FEW008 OVC037 53.1 52 96% 29.91 1012.7 0.03
17 01:56 Calm 10.00 Light Rain SCT004 BKN035 53.1 53.1 100% 29.92 1013.3 0.01
17 00:56 Calm 10.00 Light Rain BKN008 53.1 53.1 100% 29.94 1013.8
16 23:56 Calm 10.00 Mostly Cloudy FEW025 BKN045 53.1 53.1 100% 29.96 1014.4
16 22:56 Calm 10.00 Overcast BKN011 OVC025 54 53.1 97% 29.98 1015.1
16 21:56 Calm 10.00 Overcast FEW013 OVC026 54 53.1 59 54 97% 29.99 1015.5
16 20:56 Calm 10.00 Light Rain OVC024 54 52 93% 30 1015.8
16 19:56 SW 3 9.00 Light Rain FEW014 SCT024 OVC033 55 51.1 87% 30.01 1016.0
16 17:56 SW 6 10.00 Mostly Cloudy BKN014 BKN032 57 52 83% 30.02 1016.6
16 16:56 Calm 10.00 Mostly Cloudy FEW014 BKN036 59 53.1 81% 30.03 1016.8
16 15:56 SW 5 10.00 Partly Cloudy FEW030 SCT050 57.9 53.1 60.1 55.9 84% 30.04 1017.2 0.02
16 14:56 S 5 10.00 Overcast FEW034 OVC050 57 53.1 87% 30.04 1017.3 0.02
16 13:56 SW 6 10.00 Overcast SCT012 OVC039 57.9 54 87% 30.04 1017.2
16 12:56 Calm 10.00 Overcast OVC048 57.9 54 87% 30.04 1017.2
16 11:56 W 5 10.00 Partly Cloudy SCT018 57.9 54 87% 30.05 1017.4
16 10:56 SW 5 10.00 Overcast FEW008 OVC018 57 55 93% 30.06 1017.7
16 09:56 Calm 10.00 Overcast BKN009 OVC018 55.9 53.1 55.9 53.1 90% 30.05 1017.6 0.05
16 08:56 Calm 10.00 Overcast OVC016 55 53.1 93% 30.04 1017.2
16 07:56 Calm 5.00 Light Rain Fog/Mist BKN005 OVC009 54 53.1 97% 30.03 1016.9
16 06:56 SW 3 6.00 Fog/Mist OVC003 53.1 53.1 100% 30.03 1016.7 0.01 0.05
16 05:56 Calm 4.00 Light Rain Fog/Mist BKN005 OVC018 53.1 53.1 100% 30.01 1016.3 0.02
16 04:56 Calm 6.00 Fog/Mist FEW013 53.1 53.1 100% 30.01 1016.1 0.02
16 02:56 Calm 4.00 Light Rain Fog/Mist BKN004 OVC008 53.1 53.1 100% 30 1015.9 0.01
16 01:56 Calm 9.00 Overcast BKN006 OVC011 54 53.1 97% 30 1016.0
16 00:56 Calm 10.00 Overcast OVC009 54 54 100% 30 1015.8
15 23:56 Calm 9.00 Overcast OVC004 54 54 100% 30 1016.0
15 22:56 Calm 10.00 Overcast OVC004 54 54 100% 29.99 1015.6
15 21:56 Calm 9.00 Overcast OVC004 55 54 60.1 55 96% 29.99 1015.3 0.03
15 20:56 SW 7 3.00 Fog/Mist SCT004 OVC008 55.9 55 97% 29.97 1014.9 0.01
15 19:56 SW 5 7.00 Overcast BKN009 BKN019 OVC044 57 55.9 96% 29.95 1014.3
15 18:56 S 3 10.00 Overcast OVC007 57.9 57 97% 29.95 1014.3 0.01 0.02
15 17:56 SW 3 10.00 Overcast OVC003 57.9 55.9 93% 29.95 1014.2
15 16:56 SW 6 10.00 Light Rain OVC003 57 55.9 96% 29.94 1013.8 0.01
15 15:56 E 6 9.00 Light Rain FEW035 59 57.9 59 57 96% 29.94 1013.9 0.06 0.56
15 14:56 E 5 10.00 Light Rain SCT032 SCT042 59 57.9 96% 29.94 1013.7 0.08
15 13:56 SE 3 5.00 Light Rain Fog/Mist BKN006 OVC019 57.9 57 97% 29.94 1013.7 0.12
15 12:56 Vrbl 3 3.00 Light Rain Fog/Mist FEW008 OVC028 57.9 57 97% 29.93 1013.6 0.11 0.3
15 11:56 Calm 6.00 Light Rain Fog/Mist SCT028 OVC037 57.9 57 97% 29.93 1013.6 0.09
15 10:56 Calm 5.00 Light Rain Fog/Mist SCT006 BKN010 OVC040 57.9 57 97% 29.94 1013.7 0.1
15 09:56 Calm 9.00 Light Rain BKN031 57 55.9 57 55.9 96% 29.94 1013.7 0.08 0.2
15 08:56 Calm 5.00 Light Rain Fog/Mist FEW007 BKN026 OVC033 57 55.9 96% 29.94 1013.9 0.08
15 07:56 E 3 10.00 Light Rain BKN019 OVC038 55.9 55.9 100% 29.95 1014.0 0.01
15 06:56 SE 3 10.00 Light Rain FEW004 BKN027 OVC036 55.9 55.9 100% 29.95 1014.1 0.01 0.03
15 05:56 E 5 8.00 Overcast OVC022 55.9 55.9 100% 29.95 1014.1 0.01
15 04:56 SE 5 4.00 Light Rain Fog/Mist FEW009 OVC016 55.9 55 97% 29.95 1014.3 0.01
15 03:56 Calm 7.00 Light Rain OVC017 55.9 55 57 55.9 97% 29.96 1014.3 0.01 0.31
15 02:56 Calm 8.00 Light Rain OVC035 55.9 55.9 100% 29.95 1014.2 0.07
15 01:56 Calm 6.00 Rain Fog/Mist OVC036 57 55.9 96% 29.96 1014.6 0.1
15 00:56 SE 6 10.00 Light Rain OVC032 57 55 93% 29.97 1014.9 0.05 0.13
14 23:56 S 3 10.00 Light Rain OVC034 57 55 93% 29.98 1015.0 0.04
14 22:56 S 5 10.00 Light Rain OVC036 55.9 55 97% 29.98 1015.0 0.04
14 21:56 S 6 10.00 Light Rain OVC034 57 55 60.1 57 93% 29.97 1014.9 0.01 0.07
14 20:56 S 3 10.00 Light Rain OVC038 57.9 55.9 93% 29.97 1014.9 0.02
14 19:56 S 6 10.00 Light Rain SCT028 OVC036 57.9 55.9 93% 29.98 1015.0 0.02
14 18:56 SE 8 10.00 Light Rain OVC032 59 55.9 90% 29.99 1015.5 0.01 0.02
14 17:56 SE 14 9.00 Light Rain BKN030 OVC040 59 55.9 90% 29.99 1015.4 0.01
14 16:56 SE 14 10.00 Overcast OVC036 60.1 55.9 86% 29.99 1015.4
14 15:56 SE 12 G 17 10.00 Overcast OVC029 60.1 55.9 60.1 59 86% 29.99 1015.5
14 14:56 SE 13 10.00 Overcast OVC032 60.1 55 84% 29.99 1015.6
14 13:56 SE 12 10.00 Overcast SCT026 BKN039 OVC048 60.1 55 84% 29.99 1015.4
14 12:56 SE 15 10.00 Overcast OVC055 60.1 55 84% 29.98 1015.2
14 11:56 SE 14 10.00 Overcast OVC049 60.1 55 84% 29.97 1015.0
14 10:56 SE 13 G 21 10.00 Overcast FEW024 SCT043 OVC060 60.1 55 84% 29.97 1014.7
14 09:56 SE 15 G 21 10.00 Light Rain OVC023 59 55 60.1 57 87% 29.96 1014.4 0.03
14 08:56 SE 14 4.00 Light Rain Fog/Mist OVC029 57.9 55 90% 29.95 1014.3 0.02
14 07:56 SE 13 G 20 10.00 Overcast OVC029 59 54 83% 29.95 1014.3
14 06:56 SE 10 10.00 Light Rain OVC032 57.9 55 90% 29.96 1014.5 0.01
14 05:56 SE 14 10.00 Light Rain SCT027 OVC035 57.9 55 90% 29.95 1014.3
Date Time (akdt) Wind (mph) Vis. (mi.) Weather Sky Cond. Air Dwpt Max. Min. Relative Humidity Wind Chill (°F) Heat Index (°F) altimeter (in) sea level (mb) 1 hr 3 hr 6 hr
6 hour
Temperature (ºF) Pressure Precipitation (in)